This is the latest recevied weather packets stored in our database for station/object SP3SWJ-13. If no packets are shown the sender has not sent any weather packets the latest 10 day(s).
| Time | Temp. | Humidity | Pressure | Rain* | Wind** | Luminosity | Snow |
|---|---|---|---|---|---|---|---|
| 1777969784 | 17.78° C | 68% | 1000.3 hPa | - | - | 176 W/m² | - |
| 1777969483 | 17.78° C | 67% | 1000.3 hPa | - | - | 186 W/m² | - |
| 1777969182 | 17.78° C | 67% | 1000.2 hPa | - | - | 214 W/m² | - |
| 1777968881 | 17.78° C | 67% | 1000.2 hPa | - | - | 212 W/m² | - |
| 1777968580 | 17.78° C | 67% | 1000.1 hPa | - | - | 213 W/m² | - |
| 1777968279 | 17.78° C | 67% | 1000.2 hPa | - | - | 199 W/m² | - |
| 1777967978 | 18.33° C | 66% | 1000.3 hPa | - | - | 186 W/m² | - |
| 1777967677 | 17.78° C | 66% | 1000.2 hPa | - | - | 176 W/m² | - |
| 1777967376 | 17.78° C | 66% | 1000.2 hPa | - | - | 171 W/m² | - |
| 1777967075 | 17.78° C | 67% | 1000.2 hPa | - | - | 156 W/m² | - |
| 1777966774 | 17.78° C | 67% | 1000.3 hPa | - | - | 163 W/m² | - |
| 1777966473 | 18.33° C | 66% | 1000.3 hPa | - | - | 190 W/m² | - |
| 1777966172 | 18.33° C | 66% | 1000.2 hPa | - | - | 224 W/m² | - |
| 1777965872 | 18.33° C | 65% | 1000.2 hPa | - | - | 282 W/m² | - |
| 1777965571 | 17.78° C | 67% | 1000.2 hPa | - | - | 280 W/m² | - |
| 1777965269 | 17.78° C | 67% | 1000.2 hPa | - | - | 280 W/m² | - |
| 1777964969 | 17.22° C | 68% | 1000.3 hPa | - | - | 237 W/m² | - |
| 1777964667 | 17.22° C | 70% | 1000.5 hPa | - | - | 171 W/m² | - |
| 1777964367 | 17.22° C | 70% | 1000.6 hPa | - | - | 108 W/m² | - |
| 1777964066 | 17.22° C | 70% | 1000.6 hPa | - | - | 136 W/m² | - |
| 1777963765 | 17.22° C | 70% | 1000.7 hPa | - | - | 179 W/m² | - |
| 1777963464 | 17.22° C | 69% | 1000.8 hPa | - | - | 314 W/m² | - |
| 1777963163 | 16.67° C | 70% | 1000.9 hPa | - | - | 316 W/m² | - |
| 1777962862 | 16.67° C | 72% | 1001 hPa | - | - | 155 W/m² | - |
| 1777962562 | 16.67° C | 73% | 1001.1 hPa | - | - | 139 W/m² | - |
* Rain since midnight (hover to see other rain measurements)
** Current wind speed in m/s (hover to see current wind gust speed)